Track STARLINK-3332 now! 10-day predictions STARLINK-3332 is classified as:
1 50825U 22001Y 22175.60109017 .00001073 00000-0 85564-4 0 9999 2 50825 53.2177 127.8703 0002574 51.1227 308.9994 15.08836839 27250